FENGYUN 1C DEB, 40696

Orbit data source: Space-Track

FENGYUN 1C DEB, 40696 is space debris in SSO originally from a launch on Mon, 10 May 1999 UTC launched from the Taiyaun Space Center, China (TSC). Fengyun 1C debris stems from the Chinese weather satellite Fengyun-1C, which was intentionally destroyed by a Chinese anti-satellite missile in 2007. This event dramatically increased the amount of space debris, with thousands of trackable fragments posing hazards to satellites and human spaceflight. The Fengyun 1C debris cloud has become a focal point in discussions about space sustainability and the need for international regulations to prevent the creation of new debris.

Loading next visibility...
Identifier
40696, 1999-025EXC
Orbit
SSO
Country
Flag of CNCN / PRC
Related business
Manufacturer
Unknown
Mission
Spacecraft
Bus & Motor
Unknown
Mass
Unknown
Launch date (UTC)
1999-05-10 (27 years ago)
Launch vehicle
Unknown
Launch site
Taiyaun Space Center, China (TSC)
Object type
Payload
Rocket body
Debris
Shape & HBR
Unknown shape, 0.1 m
Radar Cross Section
Small (<0.1 m²)

Expand to show TLE details & history
Last TLE update: 2 days ago

TLE from 2 days ago
0 FENGYUN 1C DEB
1 40696U 99025EXC 26262.71897610 -.00000005  00000-0  27452-4 0  9997
2 40696  98.9832 247.5937 0078913 304.3613  55.0103 13.96868754596024
Epoch: 2026-09-19T17:15Z
TLE epoch observation values (Epoch: 2026-09-19T17:15:19.535Z)
Latitude
0.00003°
Longitude
-9.86118°
Altitude
874.877 km
Speed
7.431 km/s
True Right ascension
16h 30m 22s
True Declination
0° 00' 00"
Sunlit
Object was in daylight at epoch
Visualization orbit readout
Latitude
Unknown
Longitude
Unknown
Altitude
Unknown
Speed
Unknown
Apparent Right ascension
Unknown
Apparent Declination
Unknown
Sunlit
N/A
Visualization observer readout
Local Sidereal Time
20:45:33
Azimuth
Unknown
Elevation
Unknown
Doppler factor
Unknown
Orbital elements
Apogee altitude
959.31 km
Perigee altitude
844.412 km
Semi-major axis
7,279.998 km
Eccentricity
0.00789
Inclination
98.9832°
RAAN
247.5937°
Arg. of periapsis
304.3613°
True anomaly
55.75533°
Mean anomaly
55.0103°
Eccentric anomaly
55.38239°
Mean motion
3.49419 °/min
Orbital period
103.03 mins
BSTAR
0.000027452
Loading maneuver chart data...
Computing Atmospheric mass density...

Documentation

Showing up to 5 results
|